| time (UTC) | temp F | wind direction | speed knots | gust knots | rain 1hr in | rain 24hr in | rain mn in | humidity % | barometer mb |
| 20260902171608 | 61 | 256 | 5.2 | 13.0 | 0.00 | 0.00 | 0.00 | 72 | 1011.2 |
| 20260902170057 | 61 | 236 | 4.3 | 13.9 | 0.00 | 0.00 | 0.00 | 72 | 1011.2 |
| 20260902164559 | 61 | 225 | 6.1 | 13.0 | 0.00 | 0.00 | 0.00 | 72 | 1011.2 |
| 20260902163057 | 62 | 271 | 3.5 | 13.0 | 0.00 | 0.00 | 0.00 | 70 | 1011.2 |
| 20260902161556 | 62 | 250 | 5.2 | 13.9 | 0.00 | 0.00 | 0.00 | 70 | 1011.4 |
| 20260902160114 | 62 | 211 | 6.1 | 14.8 | 0.00 | 0.00 | 0.00 | 71 | 1011.4 |
| 20260902154559 | 63 | 266 | 5.2 | 13.9 | 0.00 | 0.00 | 0.00 | 70 | 1011.4 |
| 20260902153057 | 64 | 4 | 7.8 | 14.8 | 0.00 | 0.00 | 0.00 | 68 | 1011.2 |
| 20260902151603 | 64 | 229 | 6.1 | 14.8 | 0.00 | 0.00 | 0.00 | 67 | 1011.2 |
| 20260902150053 | 65 | 224 | 3.5 | 11.3 | 0.00 | 0.00 | 0.00 | 65 | 1011.2 |
| 20260902144554 | 65 | 4 | 7.0 | 14.8 | 0.00 | 0.00 | 0.00 | 61 | 1011.4 |
| 20260902143052 | 65 | 225 | 2.6 | 10.4 | 0.00 | 0.00 | 0.00 | 65 | 1011.3 |
| 20260902141555 | 64 | 4 | 7.8 | 14.8 | 0.00 | 0.00 | 0.00 | 68 | 1011.1 |
| 20260902140052 | 65 | 236 | 7.0 | 13.0 | 0.00 | 0.00 | 0.00 | 71 | 1011.2 |
| 20260902134552 | 64 | 274 | 5.2 | 13.0 | 0.00 | 0.00 | 0.00 | 69 | 1011.1 |
| 20260902133103 | 65 | 203 | 4.3 | 12.2 | 0.00 | 0.00 | 0.00 | 71 | 1011.1 |
| 20260902131552 | 65 | 217 | 1.7 | 7.8 | 0.00 | 0.00 | 0.00 | 72 | 1011.2 |
| 20260902130050 | 65 | 250 | 2.6 | 9.6 | 0.00 | 0.00 | 0.00 | 70 | 1011.2 |
| 20260902124549 | 65 | 235 | 5.2 | 12.2 | 0.00 | 0.00 | 0.00 | 69 | 1011.3 |
| 20260902123052 | 67 | 225 | 2.6 | 8.7 | 0.00 | 0.00 | 0.00 | 68 | 1011.2 |
| 20260902121546 | 66 | 4 | 3.5 | 8.7 | 0.00 | 0.00 | 0.00 | 69 | 1011.4 |
| 20260902120047 | 65 | 217 | 6.1 | 9.6 | 0.00 | 0.00 | 0.00 | 69 | 1011.7 |
| 20260902114553 | 64 | 238 | 3.5 | 10.4 | 0.00 | 0.00 | 0.00 | 67 | 1011.7 |
| 20260902113045 | 65 | 251 | 7.0 | 8.7 | 0.00 | 0.00 | 0.00 | 66 | 1011.7 |
| 20260902111548 | 64 | 286 | 1.7 | 12.2 | 0.00 | 0.00 | 0.00 | 65 | 1011.8 |
| 20260902110058 | 64 | 213 | 4.3 | 12.2 | 0.00 | 0.00 | 0.00 | 63 | 1011.7 |
| 20260902104545 | 65 | 248 | 4.3 | 12.2 | 0.00 | 0.00 | 0.00 | 59 | 1011.8 |
| 20260902103043 | 66 | 244 | 5.2 | 10.4 | 0.00 | 0.00 | 0.00 | 59 | 1011.7 |
| 20260902101542 | 66 | 234 | 7.8 | 12.2 | 0.00 | 0.00 | 0.00 | 59 | 1011.7 |
| 20260902100040 | 65 | 227 | 5.2 | 13.0 | 0.00 | 0.00 | 0.00 | 62 | 1011.8 |
| 20260902094543 | 64 | 243 | 7.8 | 13.0 | 0.00 | 0.00 | 0.00 | 62 | 1011.8 |
| 20260902093040 | 63 | 248 | 7.0 | 13.0 | 0.00 | 0.00 | 0.00 | 63 | 1011.8 |
| 20260902091537 | 64 | 236 | 4.3 | 13.0 | 0.00 | 0.00 | 0.00 | 66 | 1011.8 |
| 20260902090035 | 64 | 227 | 5.2 | 10.4 | 0.00 | 0.00 | 0.00 | 63 | 1011.6 |
| 20260902084540 | 64 | 228 | 4.3 | 15.6 | 0.00 | 0.00 | 0.00 | 67 | 1011.5 |
| 20260902083030 | 64 | 330 | 6.1 | 13.9 | 0.00 | 0.00 | 0.00 | 65 | 1011.4 |
| 20260902081528 | 63 | 4 | 7.0 | 17.4 | 0.00 | 0.00 | 0.00 | 68 | 1011.4 |
| 20260902080025 | 63 | 4 | 7.8 | 15.6 | 0.00 | 0.00 | 0.00 | 69 | 1011.3 |
| 20260902074522 | 63 | 281 | 5.2 | 16.5 | 0.00 | 0.00 | 0.00 | 71 | 1011.2 |
| 20260902073018 | 61 | 4 | 7.0 | 15.6 | 0.00 | 0.00 | 0.00 | 78 | 1011.0 |
| 20260902071521 | 61 | 205 | 5.2 | 13.0 | 0.00 | 0.00 | 0.00 | 83 | 1010.9 |
| 20260902070015 | 62 | 4 | 7.8 | 15.6 | 0.00 | 0.00 | 0.00 | 86 | 1010.8 |
| 20260902064523 | 62 | 4 | 7.8 | 17.4 | 0.00 | 0.01 | 0.00 | 86 | 1010.7 |
| 20260902063024 | 61 | 4 | 6.1 | 13.9 | 0.00 | 0.01 | 0.00 | 88 | 1010.6 |
| 20260902061512 | 61 | 4 | 7.8 | 13.0 | 0.00 | 0.01 | 0.00 | 88 | 1010.7 |
| 20260902060009 | 61 | 217 | 7.8 | 14.8 | 0.00 | 0.01 | 0.00 | 89 | 1010.6 |
| 20260902054513 | 60 | 236 | 7.0 | 13.0 | 0.00 | 0.01 | 0.00 | 89 | 1010.6 |
| 20260902053016 | 60 | 234 | 5.2 | 14.8 | 0.00 | 0.01 | 0.00 | 90 | 1010.6 |
| 20260902051503 | 60 | 4 | 7.0 | 12.2 | 0.00 | 0.01 | 0.00 | 90 | 1010.6 |
| 20260902050002 | 60 | 230 | 10.4 | 16.5 | 0.00 | 0.01 | 0.00 | 90 | 1010.5 |
| 20260902044559 | 60 | 198 | 7.0 | 15.6 | 0.00 | 0.01 | 0.00 | 90 | 1010.4 |
| 20260902043104 | 60 | 230 | 8.7 | 17.4 | 0.00 | 0.01 | 0.00 | 90 | 1010.5 |
| 20260902041555 | 59 | 252 | 8.7 | 13.9 | 0.00 | 0.01 | 0.00 | 90 | 1010.4 |
| 20260902040054 | 60 | 4 | 6.1 | 16.5 | 0.00 | 0.01 | 0.00 | 90 | 1010.6 |
| 20260902034553 | 60 | 4 | 6.1 | 14.8 | 0.00 | 0.01 | 0.00 | 90 | 1010.6 |
| 20260902033104 | 60 | 4 | 7.0 | 13.9 | 0.00 | 0.01 | 0.00 | 88 | 1010.6 |
| 20260902031550 | 60 | 4 | 6.1 | 14.8 | 0.00 | 0.01 | 0.00 | 88 | 1010.7 |
| 20260902030047 | 60 | 215 | 6.1 | 13.0 | 0.00 | 0.01 | 0.00 | 88 | 1010.8 |
| 20260902024544 | 60 | 201 | 7.8 | 13.9 | 0.00 | 0.01 | 0.00 | 87 | 1010.8 |
| 20260902023046 | 60 | 4 | 4.3 | 12.2 | 0.00 | 0.01 | 0.00 | 87 | 1010.9 |
| 20260902021540 | 60 | 211 | 6.1 | 10.4 | 0.00 | 0.01 | 0.00 | 86 | 1011.0 |
| 20260902020039 | 59 | 225 | 4.3 | 11.3 | 0.00 | 0.01 | 0.00 | 86 | 1011.1 |
| 20260902014539 | 59 | 4 | 6.1 | 12.2 | 0.00 | 0.01 | 0.00 | 86 | 1011.1 |
| 20260902013035 | 59 | 181 | 5.2 | 9.6 | 0.00 | 0.01 | 0.00 | 85 | 1011.2 |
| 20260902011533 | 59 | 4 | 6.1 | 10.4 | 0.00 | 0.01 | 0.00 | 85 | 1011.3 |
| 20260902010042 | 59 | 4 | 5.2 | 13.0 | 0.00 | 0.01 | 0.00 | 84 | 1011.5 |
| 20260902004531 | 59 | 4 | 7.8 | 12.2 | 0.00 | 0.01 | 0.00 | 84 | 1011.5 |
| 20260902003028 | 59 | 261 | 5.2 | 12.2 | 0.00 | 0.01 | 0.00 | 84 | 1011.7 |
| 20260902001527 | 59 | 4 | 5.2 | 8.7 | 0.00 | 0.01 | 0.00 | 83 | 1011.7 |
| 20260902000027 | 59 | 274 | 7.0 | 12.2 | 0.00 | 0.01 | 0.00 | 83 | 1011.8 |
| 20260901234523 | 59 | 208 | 5.2 | 9.6 | 0.00 | 0.01 | 0.00 | 83 | 1011.8 |
| 20260901233022 | 59 | 246 | 3.5 | 9.6 | 0.00 | 0.01 | 0.00 | 82 | 1011.8 |
| 20260901231522 | 59 | 215 | 5.2 | 10.4 | 0.00 | 0.01 | 0.00 | 82 | 1012.0 |
| 20260901230034 | 59 | 257 | 0.9 | 7.8 | 0.00 | 0.01 | 0.00 | 82 | 1011.9 |
| 20260901224520 | 59 | 225 | 4.3 | 9.6 | 0.00 | 0.01 | 0.00 | 82 | 1011.9 |
| 20260901223016 | 59 | 218 | 2.6 | 13.9 | 0.00 | 0.01 | 0.00 | 81 | 1011.9 |
| 20260901221515 | 59 | 4 | 5.2 | 12.2 | 0.00 | 0.01 | 0.00 | 81 | 1012.0 |
| 20260901220011 | 59 | 268 | 3.5 | 13.9 | 0.00 | 0.01 | 0.00 | 82 | 1012.0 |
| 20260901214509 | 59 | 257 | 5.2 | 12.2 | 0.00 | 0.01 | 0.01 | 82 | 1011.9 |
| 20260901213025 | 59 | 281 | 8.7 | 15.6 | 0.00 | 0.01 | 0.01 | 81 | 1011.8 |
| 20260901211507 | 59 | 243 | 7.8 | 14.8 | 0.00 | 0.01 | 0.01 | 83 | 1011.6 |
| 20260901210016 | 60 | 4 | 6.1 | 14.8 | 0.00 | 0.01 | 0.01 | 82 | 1011.7 |
| 20260901204505 | 60 | 225 | 7.0 | 14.8 | 0.00 | 0.01 | 0.01 | 82 | 1011.7 |
| 20260901203006 | 60 | 230 | 7.0 | 13.9 | 0.00 | 0.01 | 0.01 | 83 | 1011.5 |
| 20260901201502 | 60 | 238 | 7.8 | 16.5 | 0.00 | 0.01 | 0.01 | 82 | 1011.5 |
| 20260901200100 | 60 | 273 | 8.7 | 15.6 | 0.00 | 0.01 | 0.01 | 83 | 1011.6 |
| 20260901194558 | 61 | 238 | 9.6 | 13.9 | 0.00 | 0.01 | 0.01 | 83 | 1011.4 |
| 20260901193101 | 61 | 200 | 5.2 | 11.3 | 0.00 | 0.01 | 0.01 | 84 | 1011.3 |
| 20260901191600 | 61 | 4 | 6.1 | 11.3 | 0.00 | 0.01 | 0.01 | 84 | 1011.3 |
| 20260901190054 | 61 | 4 | 6.1 | 12.2 | 0.00 | 0.01 | 0.01 | 83 | 1011.2 |
| 20260901184554 | 61 | 253 | 5.2 | 11.3 | 0.00 | 0.01 | 0.01 | 84 | 1011.3 |
| 20260901183054 | 61 | 4 | 3.5 | 12.2 | 0.00 | 0.01 | 0.01 | 83 | 1011.2 |
| 20260901181552 | 61 | 265 | 1.7 | 9.6 | 0.00 | 0.01 | 0.01 | 83 | 1011.2 |
| 20260901180052 | 61 | 4 | 4.3 | 12.2 | 0.00 | 0.01 | 0.01 | 83 | 1011.3 |
| 20260901174551 | 61 | 238 | 4.3 | 9.6 | 0.00 | 0.05 | 0.01 | 83 | 1011.1 |
| 20260901173050 | 61 | 269 | 4.3 | 7.8 | 0.00 | 0.05 | 0.01 | 82 | 1011.0 |